Volver al catálogo

OPS 4682 DEB

ActivoPO
NORAD 14047·DEBRIS·🇺🇸 United States

Lanzado Apr 3, 1965 desde Vandenberg Space Force Base

Loading…

Próximos Pases (próximas 24 horas)

TLE

ActualizadoSource: Space-Track

Época: Sep 13, 2026, 19:03 UTC

1 14047U 65027J   26256.79394412  .00000513  00000-0  17576-2 0  9993
2 14047  90.2451   4.9215 0031603 232.8486 281.6622 12.96672586845495

Sigue OPS 4682 DEB en tiempo real con AllMySat

Download on the App Store